Miscellaneous Local Product
Issued by NWS North Platte, NE

Home | Current Version | Previous Version | Text Only | Print | Product List | Glossary On
Versions: 1 2 3 4 5 6 7 8 9 10 11 12 13 14 15 16 17 18 19 20 21 22 23 24 25 26 27 28 29 30 31 32 33 34 35 36 37 38 39 40 41 42 43 44 45 46 47 48 49 50
000
AXUS43 KLBF 180410
MISLBF


WESTERN AND NORTH CENTRAL NEBRASKA HOURLY WEATHER ROUNDUP
NATIONAL WEATHER SERVICE NORTH PLATTE NE
1100 PM CDT FRI APR 17 2015

***STATIONS NOT REPORTING VARIABLES SUCH AS SKY/WEATHER OR
PRESSURE ARE PROVIDED BY THE NEBRASKA DEPARTMENT OF
ROADS...RAWS...AND APRS NETWORKS...AND ARE NOT UNDER
NATIONAL WEATHER SERVICE QUALITY CONTROL***

...OBSERVATIONS IN AND NEAR THE EASTERN PANHANDLE OF NEBRASKA...

CITY           SKY/WX    TMP DP  RH WIND       PRES   REMARKS
PINE RIDGE     LGT RAIN  49  46  90 E6        30.09S
CHADRON        LGT RAIN  47  45  93 N13       30.07F FOG
ALLIANCE       CLOUDY    49  47  93 NE12      30.04S
SIDNEY         TSTM      44  41  89 N16       30.02R
WHITECLAY        N/A     47  45  93 NE8         N/A
CRESCENT LAKE    N/A     49  48  98 CALM        N/A
BIG SPRINGS      N/A     54  52  93 N12         N/A
$$

...OBSERVATIONS IN NORTH CENTRAL NEBRASKA...

CITY           SKY/WX    TMP DP  RH WIND       PRES   REMARKS
VALENTINE      CLOUDY    53  50  89 N10       30.06F
THEDFORD       MOCLDY    52  51  96 E7        30.03F
AINSWORTH      CLOUDY    54  51  91 CALM      30.04F
O`NEILL        CLOUDY    57  49  74 NE8       30.04S
ORD            CLOUDY    56  52  86 N8        30.00F
BROKEN BOW     MOCLDY    56  51  84 NE13      30.00F
SPRINGVIEW       N/A     55  51  85 CALM        N/A
ROSE             N/A     56  55  95 E13         N/A
NEWPORT          N/A     57  49  77 NE10        N/A
SARGENT          N/A     55  52  91 CALM        N/A
COMSTOCK         N/A     57  56  97 E6          N/A
EWING            N/A     58  49  73 NE5         N/A
$$

...OBSERVATIONS IN SOUTHWEST NEBRASKA AND FAR NORTHEAST COLORADO...

CITY           SKY/WX    TMP DP  RH WIND       PRES   REMARKS
WRAY           CLOUDY    53  44  71 SE14G20   29.96S
HOLYOKE        FAIR      54  46  76 SE9G16    29.99R
IMPERIAL       RAIN      49  45  86 SE12      30.01R FOG
OGALLALA       CLOUDY    55  53  94 E14G21    29.98R
NORTH PLATTE   CLOUDY    56  53  90 E13       29.99S THUNDER
MCCOOK         MOCLDY    57  51  80 CALM      29.97R
LEXINGTON      CLOUDY    58  56  92 E10       29.99S
PAXTON           N/A     56  54  92 NE18        N/A
SUTHERLAND       N/A     51  49  93 E16         N/A
BRADY            N/A     56  53  90 N3          N/A
GOTHENBURG       N/A     57  53  85 NE8         N/A
CALLAWAY         N/A     55  54  97 E10         N/A
$$

...NORTH PLATTE AREA...

CITY           SKY/WX    TMP DP  RH WIND       PRES   REMARKS
AIRPORT        CLOUDY    56  53  90 E13       29.99S THUNDER
DOWNTOWN         N/A     56  54  92 NE7         N/A
$$

...SOME WEATHER OBSERVATIONS FROM AROUND THE REGION...

CITY           SKY/WX    TMP DP  RH WIND       PRES   REMARKS
DENVER         CLOUDY    42  39  89 SE9       30.04R
LARAMIE        CLOUDY    24  22  91 CALM      30.07R
CHEYENNE       LGT RAIN  33  32  96 NE8G18    30.09R FOG     WCI  26
SCOTTSBLUFF    RAIN      43  43 100 W8        30.06R FOG
RAPID CITY     LGT RAIN  47  45  93 S6        30.13R
PIERRE         MOCLDY    58  46  64 W9        30.06F
WINNER         CLOUDY    55  51  86 S3        30.06F
SIOUX FALLS    MOCLDY    59  35  40 NE6       30.05R
OMAHA          CLOUDY    69  54  58 CALM      29.99S
GRAND ISLAND   PTCLDY    57  53  86 E6        30.00S
KANSAS CITY    CLOUDY    63  58  83 E3        29.99S
WICHITA        CLOUDY    65  58  78 CALM      29.95F
HAYS           CLOUDY    61  52  72 SE9       29.95S
LIBERAL        MOCLDY    61  52  72 SW8       29.96S
GOODLAND       CLOUDY    49  47  93 NE15      29.97F
$$



USA.gov is the U.S. government's official web portal to all federal, state and local government web resources and services.